Terug naar catalogus

ONEWEB-0111

ActiefCommunicatiePO
NORAD 47261·PAYLOAD·🇬🇧 United Kingdom

Gelanceerd Dec 18, 2020 vanaf Vostochny Cosmodrome

Loading…

Volgende Passages (komende 24 uur)

TLE

VersSource: CelesTrak SupGP

Epoch: Sep 14, 2026, 22:52 UTC

1 47261C 20100D   26257.95296713 -.00001057  00000+0 -29421-2 0  2578
2 47261  87.8978 332.8447 0001994 100.0996   2.8912 13.12441444    19

Volg ONEWEB-0111 in realtime met AllMySat

Download on the App Store